| time (UTC) | temp C | wind direction | speed KPH | gust KPH | rain 1hr cm | rain 24hr cm | rain mn cm | humidity % | barometer mb |
| 20260503054515 | 11 | 157 | 0.0 | 0.0 | 0.00 | 0.00 | 0.00 | 69 | 1010.4 |
| 20260503053017 | 11 | 184 | 1.6 | 0.0 | 0.00 | 0.00 | 0.00 | 67 | 1010.0 |
| 20260503051511 | 12 | 254 | 0.0 | 0.0 | 0.00 | 0.00 | 0.00 | 65 | 1010.0 |
| 20260503050011 | 12 | 263 | 1.6 | 0.0 | 0.00 | 0.00 | 0.00 | 64 | 1010.6 |
| 20260503044511 | 13 | 327 | 1.6 | 0.0 | 0.00 | 0.00 | 0.00 | 59 | 1010.0 |
| 20260503043011 | 14 | 295 | 1.6 | 0.0 | 0.00 | 0.00 | 0.00 | 56 | 1009.3 |
| 20260503041510 | 15 | 355 | 3.2 | 0.0 | 0.00 | 0.00 | 0.00 | 50 | 1009.3 |
| 20260503040023 | 15 | 320 | 1.6 | 0.0 | 0.00 | 0.00 | 0.00 | 53 | 1010.2 |
| 20260503034511 | 15 | 9 | 3.2 | 0.0 | 0.00 | 0.00 | 0.00 | 42 | 1010.3 |
| 20260503033008 | 15 | 340 | 4.8 | 0.0 | 0.00 | 0.00 | 0.00 | 45 | 1010.3 |
| 20260503031508 | 15 | 300 | 4.8 | 0.0 | 0.00 | 0.00 | 0.00 | 47 | 1010.2 |
| 20260503030007 | 16 | 22 | 3.2 | 0.0 | 0.00 | 0.00 | 0.00 | 45 | 1011.2 |
| 20260503024506 | 16 | 13 | 1.6 | 0.0 | 0.00 | 0.00 | 0.00 | 44 | 1010.6 |
| 20260503023006 | 17 | 19 | 3.2 | 0.0 | 0.00 | 0.00 | 0.00 | 38 | 1010.2 |
| 20260503021510 | 17 | 10 | 1.6 | 0.0 | 0.00 | 0.00 | 0.00 | 35 | 1009.8 |
| 20260503020005 | 17 | 28 | 3.2 | 0.0 | 0.00 | 0.00 | 0.00 | 34 | 1010.8 |
| 20260503014504 | 18 | 321 | 3.2 | 0.0 | 0.00 | 0.00 | 0.00 | 34 | 1010.7 |
| 20260503013004 | 18 | 13 | 3.2 | 0.0 | 0.00 | 0.00 | 0.00 | 35 | 1010.8 |
| 20260503011510 | 18 | 330 | 0.0 | 0.0 | 0.00 | 0.00 | 0.00 | 34 | 1010.5 |
| 20260503010003 | 18 | 14 | 0.0 | 0.0 | 0.00 | 0.00 | 0.00 | 34 | 1010.6 |
| 20260503004503 | 19 | 5 | 3.2 | 0.0 | 0.00 | 0.00 | 0.00 | 32 | 1010.5 |
| 20260503003004 | 20 | 5 | 1.6 | 0.0 | 0.00 | 0.00 | 0.00 | 32 | 1009.6 |
| 20260503001502 | 21 | 219 | 0.0 | 0.0 | 0.00 | 0.00 | 0.00 | 34 | 1009.1 |
| 20260503000001 | 21 | 182 | 3.2 | 0.0 | 0.00 | 0.00 | 0.00 | 32 | 1009.0 |
| 20260502234503 | 21 | 82 | 1.6 | 0.0 | 0.00 | 0.00 | 0.00 | 30 | 1008.8 |
| 20260502233001 | 21 | 205 | 3.2 | 0.0 | 0.00 | 0.00 | 0.00 | 26 | 1008.9 |
| 20260502231601 | 21 | 258 | 3.2 | 0.0 | 0.00 | 0.00 | 0.00 | 28 | 1008.9 |
| 20260502230100 | 21 | 180 | 3.2 | 0.0 | 0.00 | 0.00 | 0.00 | 28 | 1008.8 |
| 20260502224559 | 22 | 144 | 3.2 | 0.0 | 0.00 | 0.00 | 0.00 | 29 | 1008.7 |
| 20260502223059 | 22 | 88 | 1.6 | 0.0 | 0.00 | 0.00 | 0.00 | 26 | 1008.8 |
| 20260502221559 | 22 | 252 | 4.8 | 0.0 | 0.00 | 0.00 | 0.00 | 23 | 1009.2 |
| 20260502220142 | 22 | 192 | 3.2 | 0.0 | 0.00 | 0.00 | 0.00 | 26 | 1009.0 |
| 20260502214557 | 23 | 161 | 1.6 | 0.0 | 0.00 | 0.00 | 0.00 | 28 | 1009.3 |
| 20260502213103 | 22 | 154 | 1.6 | 0.0 | 0.00 | 0.00 | 0.00 | 25 | 1009.3 |
| 20260502211556 | 23 | 142 | 1.6 | 0.0 | 0.00 | 0.00 | 0.00 | 28 | 1009.4 |
| 20260502204605 | 22 | 266 | 0.0 | 0.0 | 0.00 | 0.00 | 0.00 | 26 | 1009.7 |
| 20260502203103 | 22 | 154 | 1.6 | 0.0 | 0.00 | 0.00 | 0.00 | 24 | 1009.7 |
| 20260502201551 | 22 | 300 | 0.0 | 0.0 | 0.00 | 0.00 | 0.00 | 25 | 1009.8 |
| 20260502200050 | 22 | 94 | 1.6 | 0.0 | 0.00 | 0.00 | 0.00 | 26 | 1009.5 |
| 20260502194553 | 22 | 92 | 0.0 | 0.0 | 0.00 | 0.00 | 0.00 | 26 | 1009.9 |
| 20260502193046 | 22 | 98 | 0.0 | 0.0 | 0.00 | 0.00 | 0.00 | 26 | 1010.1 |
| 20260502191544 | 21 | 200 | 0.0 | 0.0 | 0.00 | 0.00 | 0.00 | 30 | 1010.3 |
| 20260502190047 | 21 | 211 | 1.6 | 0.0 | 0.00 | 0.00 | 0.00 | 29 | 1010.0 |
| 20260502184542 | 21 | 248 | 1.6 | 0.0 | 0.00 | 0.00 | 0.00 | 29 | 1010.1 |
| 20260502183050 | 21 | 170 | 1.6 | 0.0 | 0.00 | 0.00 | 0.00 | 30 | 1010.5 |
| 20260502181539 | 21 | 186 | 0.0 | 0.0 | 0.00 | 0.00 | 0.00 | 31 | 1010.6 |
| 20260502163040 | 16 | 208 | 0.0 | 0.0 | 0.00 | 0.00 | 0.00 | 39 | 1011.1 |
| 20260502161513 | 15 | 208 | 0.0 | 0.0 | 0.00 | 0.00 | 0.00 | 42 | 1011.5 |
| 20260502151620 | 11 | 334 | 0.0 | 0.0 | 0.00 | 0.00 | 0.00 | 53 | 1012.6 |
| 20260502150105 | 10 | 329 | 0.0 | 0.0 | 0.00 | 0.00 | 0.00 | 54 | 1012.5 |
| 20260502130103 | 6 | 340 | 0.0 | 0.0 | 0.00 | 0.00 | 0.00 | 63 | 1010.8 |
| 20260502123057 | 6 | 282 | 0.0 | 0.0 | 0.00 | 0.00 | 0.00 | 58 | 1010.6 |
| 20260502121547 | 6 | 270 | 0.0 | 0.0 | 0.00 | 0.00 | 0.00 | 57 | 1010.9 |
| 20260502114548 | 7 | 275 | 0.0 | 0.0 | 0.00 | 0.00 | 0.00 | 55 | 1010.7 |
| 20260502113041 | 7 | 280 | 0.0 | 0.0 | 0.00 | 0.00 | 0.00 | 54 | 1010.6 |
| 20260502111546 | 7 | 279 | 0.0 | 0.0 | 0.00 | 0.00 | 0.00 | 54 | 1010.7 |
| 20260502110042 | 7 | 277 | 0.0 | 0.0 | 0.00 | 0.00 | 0.00 | 54 | 1010.7 |
| 20260502104538 | 7 | 278 | 0.0 | 0.0 | 0.00 | 0.00 | 0.00 | 53 | 1010.7 |
| 20260502103038 | 7 | 279 | 0.0 | 0.0 | 0.00 | 0.00 | 0.00 | 53 | 1010.7 |
| 20260502101534 | 7 | 277 | 0.0 | 0.0 | 0.00 | 0.00 | 0.00 | 54 | 1010.7 |
| 20260502091526 | 8 | 276 | 0.0 | 0.0 | 0.00 | 0.00 | 0.00 | 47 | 1010.5 |
| 20260502071509 | 11 | 281 | 0.0 | 0.0 | 0.00 | 0.00 | 0.00 | 38 | 1010.8 |